Location: Emblem
(62.4273°N, 6.4710°E)
Time: 02:20:49
(UTC+02:00)

UWE-3 - Pass Details

Date: 26 March 2023
Orbit: 577 x 669 km, 97.7° (Epoch: 06 June)

Event Time Altitude Azimuth Distance (km) Brightness Sun altitude
Rises 06:23:27 0° 17° (NNE) 3,037 ? -6.8°
Reaches altitude 10° 06:25:53 10° 7° (N) 2,113 ? -6.6°
Maximum altitude 06:29:56 31° 306° (NW) 1,162 ? -6.1°
Drops below altitude 10° 06:33:55 10° 245° (WSW) 2,067 ? -5.7°
Enters shadow 06:34:48 - 240° (WSW) 2,390 ? -5.6°
